SCP
0 0 0 0 0 0 0 0 0 0 0 0 0 0 0 0 0 0 0 0 0 0 0 0 0 0 0 0 0 0 0 0 0 0 0 0 0 0 0 0 0 0 0 0 0 0 0 0 0
0 0 0 0 0 0 0 0 0 0 0 0 0 0 0 0 0 0 0 0 0 0 0 0 0 0 0 0 0 0 0 0 0 0 0 0 0 0 0 0 0 0 0 0 0 0 0 0 0
0 0 0 0 0 0 0 0 0 0 0 0 0 0 0 0 0 0 0 0 0 0 0 0 0 0 0 0 0 0 0 0 0 0 0 0 0 0 0 0 0 0 0 0 0 0 0 0 0
0 0 0 0 0 0 0 0 0 0 0 0 0 0 0 0 0 0 0 0 0 0 0 0 0 0 0 0 0 0 0 0 0 0 0 0 0 0 0 0 0 0 0 0 0 0 0 0 0
0 0 0 0 0 0 0 0 0 0 0 0 0 0 0 0 0 0 0 0 0 0 0 0 0 0 0 0 0 0 0 0 0 0 0 0 0 0 0 0 0 0 0 0 0 0 0 0 0
0 0 0 0 0 0 0 0 0 0 0 0 0 0 0 0 0 0 0 0 0 0 0 0 0 0 0 0 0 0 0 0 0 0 0 0 0 0 0 0 0 0 0 0 0 0 0 0 0
0 0 0 0 0 0 0 0 0 0 0 0 0 0 0 0 0 0 0 0 0 0 0 0 0 0 0 0 0 0 0 0 0 0 0 0 0 0 0 0 0 0 0 0 0 0 0 0 0
0 0 0 0 0 0 0 0 0 0 0 0 0 0 0 0 0 0 0 0 0 0 0 0 0 0 0 0 0 0 0 0 0 0 0 0 0 0 0 0 0 0 0 0 0 0 0 0 0
0 0 0 0 0 0 0 0 0 0 0 0 0 0 0 0 0 0 0 0 0 0 0 0 0 0 0 0 0 0 0 0 0 0 0 0 0 0 0 0 0 0 0 0 0 0 0 0 0
0 0 0 0 0 0 0 0 0 0 0 0 0 0 0 0 0 0 0 0 0 0 0 0 0 0 0 0 0 0 0 0 0 0 0 0 0 0 0 0 0 0 0 0 0 0 0 0 0
0 0 0 0 0 0 0 0 0 0 0 0 0 0 0 0 0 0 0 0 0 0 0 0 0 0 0 0 0 0 0 0 0 0 0 0 0 0 0 0 0 0 0 0 0 0 0 0 0
0 0 0 0 0 0 0 0 0 0 0 0 0 0 0 0 0 0 0 0 0 0 0 0 0 0 0 0 0 0 0 0 0 0 0 0 0 0 0 0 0 0 0 0 0 0 0 0 0
0 0 0 0 0 0 0 0 0 0 0 0 0 0 0 0 0 0 0 0 0 0 0 0 0 0 0 0 0 0 0 0 0 0 0 0 0 0 0 0 0 0 0 0 0 0 0 0 0
0 0 0 0 0 0 0 0 0 0 0 0 0 0 0 0 0 0 0 0 0 0 0 0 0 0 0 0 0 0 0 0 0 0 0 0 0 0 0 0 0 0 0 0 0 0 0 0 0
0 0 0 0 0 0 0 0 0 0 0 0 0 0 0 0 0 0 0 0 0 0 0 0 0 0 0 0 0 0 0 0 0 0 0 0 0 0 0 0 0 0 0 0 0 0 0 0 0
0 0 0 0 0 0 0 0 0 0 0 0 0 0 0 0 0 0 0 0 0 0 0 0 0 0 0 0 0 0 0 0 0 0 0 0 0 0 0 0 0 0 0 0 0 0 0 0 0
0 0 0 0 0 0 0 0 0 0 0 0 0 0 0 0 0 0 0 0 0 0 0 0 0 0 0 0 0 0 0 0 0 0 0 0 0 0 0 0 0 0 0 0 0 0 0 0 0
0 0 0 0 0 0 0 0 0 0 0 0 0 0 0 0 0 0 0 0 0 0 0 0 0 0 0 0 0 0 0 0 0 0 0 0 0 0 0 0 0 0 0 0 0 0 0 0 0
0 0 0 0 0 0 0 0 0 0 0 0 0 0 0 0 0 0 0 0 0 0 0 0 0 0 0 0 0 0 0 0 0 0 0 0 0 0 0 0 0 0 0 0 0 0 0 0 0
0 0 0 0 0 0 0 0 0 0 0 0 0 0 0 0 0 0 0 0 0 0 0 0 0 0 0 0 0 0 0 0 0 0 0 0 0 0 0 0 0 0 0 0 0 0 0 0 0
0 0 0 0 0 0 0 0 0 0 0 0 0 0 0 0 0 0 0 0 0 0 0 0 0 0 0 0 0 0 0 0 0 0 0 0 0 0 0 0 0 0 0 0 0 0 0 0 0
0 0 0 0 0 0 0 0 0 0 0 0 0 0 0 0 0 0 0 0 0 0 0 0 0 0 0 0 0 0 0 0 0 0 0 0 0 0 0 0 0 0 0 0 0 0 0 0 0
0 0 0 0 0 0 0 0 0 0 0 0 0 0 0 0 0 0 0 0 0 0 0 0 0 0 0 0 0 0 0 0 0 0 0 0 0 0 0 0 0 0 0 0 0 0 0 0 0
0 0 0 0 0 0 0 0 0 0 0 0 0 0 0 0 0 0 0 0 0 0 0 0 0 0 0 0 0 0 0 0 0 0 0 0 0 0 0 0 0 0 0 0 0 0 0 0 0
0 0 0 0 0 0 0 0 0 0 0 0 0 0 0 0 0 0 0 0 0 0 0 0 0 0 0 0 0 0 0 0 0 0 0 0 0 0 0 0 0 0 0 0 0 0 0 0 0
0 0 0 0 0 0 0 0 0 0 0 0 0 0 0 0 0 0 0 0 0 0 0 0 0 0 0 0 0 0 0 0 0 0 0 0 0 0 0 0 0 0 0 0 0 0 0 0 0
0 0 0 0 0 0 0 0 0 0 0 0 0 0 0 0 0 0 0 0 0 0 0 0 0 0 0 0 0 0 0 0 0 0 0 0 0 0 0 0 0 0 0 0 0 0 0 0 0
0 0 0 0 0 0 0 0 0 0 0 0 0 0 0 0 0 0 0 0 0 0 0 0 0 0 0 0 0 0 0 0 0 0 0 0 0 0 0 0 0 0 0 0 0 0 0 0 0
0 0 0 0 0 0 0 0 0 0 0 0 0 0 0 0 0 0 0 0 0 0 0 0 0 0 0 0 0 0 0 0 0 0 0 0 0 0 0 0 0 0 0 0 0 0 0 0 0
0 0 0 0 0 0 0 0 0 0 0 0 0 0 0 0 0 0 0 0 0 0 0 0 0 0 0 0 0 0 0 0 0 0 0 0 0 0 0 0 0 0 0 0 0 0 0 0 0
Wind_Speed
8 6 3 1 3 4 2 2 1 2 2 2 3 5 5 3 1 1 1 2 3 2 2 3 5 7 9 10 9 10 10 10 10 10 10 11 11 11 12 12 13 14 14 14 14 14 14 14 14
6 5 1 2 4 3 3 2 1 1 4 4 4 4 5 3 2 3 2 1 3 3 2 3 6 7 9 9 9 9 9 9 10 10 10 10 10 10 10 11 12 13 13 13 14 14 14 14 14
6 3 2 3 3 2 1 1 2 3 3 2 3 4 4 2 3 2 1 4 4 3 2 3 7 8 9 8 9 8 8 9 9 9 9 9 9 9 9 10 11 12 13 13 14 14 13 13 13
3 1 3 4 1 2 3 2 4 4 3 4 4 4 4 3 2 3 5 5 5 3 2 3 7 7 8 8 8 8 8 8 8 9 9 9 8 8 9 9 10 11 12 13 13 13 13 13 13
2 3 4 3 2 2 1 3 4 3 2 3 4 4 3 4 6 7 6 5 5 3 2 3 7 7 7 7 7 7 7 7 8 8 8 8 8 8 8 10 10 11 12 12 13 12 12 12 12
3 4 4 2 3 2 1 2 3 3 3 3 4 4 2 3 5 6 5 5 4 3 3 3 6 6 6 5 6 6 7 7 8 8 8 8 8 8 8 9 9 11 11 12 12 11 12 12 11
3 3 1 1 1 1 2 3 3 3 3 3 4 5 2 2 4 5 5 5 4 4 3 2 2 3 4 4 5 5 6 7 8 8 7 7 7 8 8 8 9 10 10 10 10 11 11 10 10
3 4 1 1 1 2 2 3 2 3 3 4 4 6 4 4 6 6 5 5 4 3 3 3 3 2 2 2 4 4 6 7 8 7 7 7 7 7 7 7 8 9 9 10 10 10 10 9 9
3 4 1 3 4 3 3 3 2 3 5 3 3 4 5 11 9 6 5 3 3 3 3 2 2 2 2 1 2 3 5 5 6 5 7 5 3 3 4 6 8 8 9 9 9 9 9 8 8
3 2 5 4 4 4 4 4 4 4 4 3 5 7 11 11 8 7 5 4 2 1 1 2 2 2 2 1 2 1 2 2 3 3 3 3 3 2 3 5 8 7 7 7 7 7 7 5 3
4 4 4 2 3 5 5 4 3 7 3 5 8 11 12 10 7 6 5 4 3 2 1 1 1 2 2 2 1 1 2 2 3 3 3 3 2 2 2 2 3 3 4 3 4 4 3 3 2
3 4 3 1 3 4 6 5 4 4 4 6 11 14 12 10 8 7 6 4 2 2 1 1 1 1 2 2 2 2 2 2 2 2 3 2 2 2 2 2 2 2 2 2 2 2 3 3 3
2 2 2 1 3 4 5 4 4 1 4 11 13 12 11 9 7 5 4 4 3 2 2 1 1 1 1 2 1 2 2 2 2 2 2 2 2 1 1 1 2 2 2 2 2 2 3 3 2
1 1 2 2 3 3 5 3 3 2 9 12 12 10 9 8 7 5 4 4 3 3 2 1 2 1 2 1 1 1 1 1 2 2 2 2 2 1 1 1 2 2 2 2 2 2 3 2 2
2 3 4 3 2 2 5 2 1 5 11 11 10 9 8 6 6 6 6 5 5 4 3 2 3 2 2 1 1 1 1 1 1 1 2 2 2 2 2 2 2 2 2 3 3 3 3 2 2
4 4 2 3 1 2 5 3 2 8 11 10 9 9 7 6 6 5 5 4 4 3 3 3 3 2 2 1 1 1 1 1 1 1 1 2 2 2 2 2 2 2 2 3 3 3 3 2 2
4 1 1 3 1 2 3 3 3 8 10 9 9 8 8 6 5 5 5 5 5 5 4 3 3 3 2 2 1 1 1 1 1 1 1 1 2 3 3 2 1 2 3 2 3 3 3 2 2
3 2 2 3 2 2 2 2 3 8 9 9 8 8 8 8 7 6 5 5 4 4 4 3 3 2 2 2 2 2 1 1 1 1 1 2 2 3 3 2 2 3 3 2 2 3 3 2 2
4 2 2 4 2 2 2 2 4 7 7 8 7 8 8 8 6 5 5 5 4 4 4 4 3 3 3 2 1 1 1 1 1 1 2 2 2 3 3 2 2 2 2 2 3 3 3 2 2
3 2 2 3 1 2 0 2 1 5 8 8 9 9 9 6 5 5 5 5 6 6 5 4 4 4 3 2 2 2 2 1 1 1 2 2 2 2 3 3 3 2 2 3 3 3 2 1 1
2 4 4 2 2 4 3 4 2 2 3 3 4 6 6 9 8 7 6 6 6 6 6 6 5 4 3 3 3 2 2 2 2 2 1 1 2 2 2 3 3 3 3 3 2 2 3 2 1
3 4 4 3 3 1 2 2 5 2 2 5 6 6 7 7 7 7 7 7 7 8 6 5 5 4 3 4 4 4 3 2 1 1 1 1 1 2 2 2 2 2 2 2 2 2 2 2 1
4 3 4 3 3 2 2 1 7 1 4 7 7 7 7 7 8 8 8 8 7 7 6 6 5 5 4 4 5 4 3 2 1 1 1 1 1 1 2 2 2 2 2 2 2 2 2 2 2
5 6 6 5 5 1 2 2 6 3 6 5 6 7 7 8 8 7 7 6 5 5 5 5 5 5 4 5 5 5 4 4 3 2 2 1 0 0 1 2 2 2 2 2 2 2 3 2 2
4 6 4 5 4 4 1 2 8 5 5 5 6 6 6 6 7 6 6 7 6 6 6 6 6 6 5 5 5 5 5 5 5 3 3 2 1 1 1 2 2 2 2 2 2 2 2 3 3
4 8 8 5 4 4 1 4 7 4 3 2 3 4 5 6 6 7 7 7 7 7 7 7 7 6 6 6 5 4 4 4 3 3 3 3 2 2 2 2 2 2 2 2 2 2 2 2 2
5 3 5 7 2 0 4 6 7 2 4 3 1 3 5 6 6 7 7 7 6 7 7 7 7 6 6 6 5 4 4 4 3 3 3 2 2 2 3 3 3 2 2 2 3 2 2 2 2
4 7 6 6 5 2 4 4 5 5 4 3 1 2 4 5 6 6 6 6 6 6 6 5 6 7 6 6 5 5 4 4 3 3 3 3 2 2 2 3 3 3 3 3 3 2 2 2 2
3 4 5 5 5 6 3 6 5 5 4 3 3 2 3 4 6 6 5 5 5 5 5 5 5 5 5 5 5 4 4 4 4 3 3 3 2 3 3 3 3 3 3 3 3 3 2 2 2
3 5 6 5 3 4 4 7 3 2 2 2 2 1 1 2 4 4 4 4 5 5 5 5 5 5 5 4 4 4 3 3 3 3 3 2 2 3 3 3 3 3 3 4 4 4 3 3 3
Wind_Direction
150 137 138 119 55 46 352 324 49 50 51 46 78 87 97 85 117 172 290 101 113 129 149 154 143 136 139 138 137 136 134 134 138 139 140 142 142 142 143 146 149 150 150 150 148 146 143 143 143
140 151 160 65 74 48 319 323 61 100 139 131 80 73 73 58 60 93 79 96 103 108 109 130 126 127 132 135 134 134 134 135 136 139 139 140 140 140 143 147 152 153 151 150 149 147 145 144 144
158 178 93 69 84 160 238 286 120 96 120 105 75 59 72 76 98 110 135 121 96 94 90 128 123 120 125 129 129 131 132 133 134 136 139 140 139 142 147 150 152 155 154 152 150 148 147 147 146
150 80 57 62 27 233 202 188 141 124 78 58 89 67 60 45 104 121 125 116 102 90 82 120 122 118 118 122 126 128 128 132 133 134 136 140 142 146 148 150 151 156 157 153 151 151 151 150 149
87 77 52 28 324 302 174 168 153 121 82 69 86 82 43 27 88 111 117 112 110 93 76 111 123 119 120 123 129 132 128 129 132 135 138 141 143 144 147 146 149 153 153 152 152 153 152 152 151
64 64 64 2 324 337 103 135 107 90 94 93 91 88 49 75 100 116 111 101 103 103 91 92 113 116 120 125 127 133 133 132 132 131 133 134 136 139 139 142 147 151 153 154 154 154 153 155 154
103 88 112 240 289 296 169 121 126 119 112 120 115 96 93 106 114 112 98 92 89 85 78 67 80 106 119 126 128 131 132 131 130 131 134 132 134 134 137 144 147 149 152 155 157 157 156 156 156
132 102 70 255 210 234 152 109 109 115 106 110 107 131 165 161 125 104 89 81 74 64 57 52 45 45 55 106 126 127 130 130 136 135 137 133 131 130 135 142 148 149 152 154 158 159 158 158 158
117 77 219 222 193 208 148 117 109 93 108 104 92 134 141 132 123 111 98 81 75 63 34 43 42 42 40 75 131 130 129 130 131 132 136 122 96 99 119 140 147 149 152 154 156 155 158 158 157
113 143 228 218 187 172 152 138 143 113 107 93 77 90 118 128 134 137 139 142 137 106 28 43 47 45 39 53 59 69 94 101 93 87 93 82 73 73 97 126 139 142 144 147 150 147 149 144 142
165 207 239 235 175 152 142 136 131 130 170 185 155 142 138 140 145 151 157 162 174 168 115 56 47 46 40 33 48 62 79 89 91 93 92 86 76 65 59 80 106 109 120 111 123 125 117 121 133
186 252 235 233 148 142 149 139 128 164 207 158 148 145 146 153 162 168 168 172 166 148 160 100 79 54 29 40 56 71 88 97 95 100 107 103 92 71 69 76 82 84 90 96 94 104 112 120 130
199 289 346 53 106 119 113 120 130 138 110 123 132 141 153 161 168 174 169 163 157 169 181 172 145 107 65 63 59 78 84 102 109 110 112 109 108 100 99 99 96 98 101 109 109 107 114 114 115
207 11 6 48 87 98 111 92 93 129 126 131 142 154 163 169 172 168 167 171 177 190 197 181 162 144 101 87 78 100 102 107 107 118 129 128 126 124 127 118 113 118 125 128 121 121 121 120 122
81 55 25 34 73 95 105 59 169 147 140 144 155 162 168 175 177 183 184 182 186 193 189 181 169 145 134 128 128 119 117 116 115 130 141 135 140 143 133 121 124 132 128 121 112 106 106 111 116
49 58 22 312 100 123 116 234 209 150 148 157 166 171 176 185 192 194 184 177 179 178 178 184 177 157 154 145 139 125 123 121 131 135 131 136 142 134 125 121 121 129 126 123 120 119 114 111 113
29 43 273 294 191 139 145 223 198 160 156 167 177 179 183 188 198 199 188 179 177 178 175 173 167 156 158 141 113 103 104 118 128 122 126 131 135 133 130 125 118 118 115 120 128 119 124 121 116
241 244 257 256 240 142 169 228 184 172 169 177 182 183 187 194 202 194 185 177 173 171 168 169 162 147 134 114 86 70 73 88 103 115 126 132 131 133 132 126 114 112 115 116 114 114 105 108 111
179 179 245 258 217 148 198 224 203 182 180 185 187 188 195 202 198 177 175 169 161 163 166 171 165 158 141 128 129 123 139 112 96 119 129 132 132 133 139 137 123 122 125 126 122 113 108 100 101
153 155 259 305 49 135 131 317 228 189 198 197 194 193 197 194 182 178 173 172 176 182 182 177 178 170 164 162 151 141 130 126 123 96 91 109 126 134 148 140 137 134 127 122 123 120 116 102 111
193 182 204 211 40 52 67 342 306 238 213 207 205 198 194 193 190 188 181 182 182 188 190 188 186 181 175 152 120 101 84 69 66 62 64 72 109 122 131 135 137 140 143 149 147 140 139 148 154
237 213 178 153 104 341 78 290 287 254 235 220 214 202 201 199 191 189 186 186 191 196 189 184 178 177 172 153 144 143 147 154 174 153 136 92 108 122 132 132 138 141 141 149 163 148 152 152 166
194 132 122 115 115 57 23 150 288 301 251 239 223 211 205 196 188 190 192 193 192 189 184 181 173 175 169 162 164 159 161 170 138 120 110 102 88 114 136 142 144 144 146 150 151 146 163 166 169
134 79 60 53 70 35 252 167 282 247 236 247 226 215 202 192 188 188 184 176 178 173 172 173 171 180 176 171 170 172 173 166 148 150 160 166 138 117 146 151 153 157 162 166 172 171 176 185 182
97 93 42 10 15 257 252 187 252 260 251 232 220 211 198 187 179 177 179 180 181 177 177 173 176 185 183 179 183 186 184 176 178 183 183 180 182 206 223 187 163 164 176 173 164 167 184 187 184
171 140 153 184 215 274 327 235 254 281 291 262 207 184 172 176 180 183 184 187 188 184 183 179 187 190 184 184 191 191 186 184 191 191 187 191 201 208 204 193 187 180 174 169 160 171 192 178 194
141 151 151 129 133 302 282 286 299 331 353 6 45 148 170 178 179 185 185 185 184 182 183 186 183 187 189 188 185 184 187 186 189 192 193 197 205 203 190 190 193 188 173 166 165 181 198 186 197
125 139 102 118 145 217 284 279 271 298 301 317 338 206 194 180 179 182 185 189 187 185 184 183 185 193 193 187 191 192 194 191 187 183 191 194 201 202 187 189 192 186 182 178 176 192 199 183 203
84 86 101 114 147 156 216 264 239 243 245 241 254 251 206 184 181 182 188 192 184 176 176 179 188 190 188 188 189 193 191 186 183 187 198 203 202 195 196 200 195 196 197 190 184 205 198 198 216
142 149 143 147 193 164 171 259 283 247 251 215 235 268 237 191 181 176 180 181 176 174 175 177 185 190 194 187 183 190 188 177 185 200 207 203 211 214 209 201 198 205 204 197 196 206 203 204 217